User: anonymous   Login
Location: Unspecified
(0.0000°N, 0.0000°E)
Time: 08:35:52
(UTC+00:00)
Language:

Cosmos 2491 - Orbit

View from above orbital plane
View from above orbital plane
View from above satellite
View from above satellite

Ground track
Ground track

The orbit data is extracted from the following two-line orbital elements,

1 39497U 13076E   17293.50002282 +.00000024 +00000-0 +10000-3 0  9990
2 39497 082.4901 339.6107 0018230 151.2042 209.0057 12.42674104173124
Epoch (UTC): 20 October 2017 12:00:01
Eccentricity: 0.0018230
inclination: 82.4901°
perigee height: 1481 km
apogee height: 1509 km
right ascension of ascending node: 339.6107°
argument of perigee: 151.2042°
revolutions per day: 12.42674104
mean anomaly at epoch: 209.0057°
orbit number at epoch: 17312

The dashed part of the orbit path shows where the satellite is in the earth's shadow,  

DLR